Theta_e
321 321 321 320 320 319 319 319 320 322 322 323 326 326 327 327 327 328 329 329 330 330 330 329 327 326 325 326 325 324 324 324 320 322 323 326 325 325 323 322 320 316 309
325 326 325 322 321 320 319 321 323 323 324 327 328 328 328 328 329 329 329 329 328 327 327 326 327 326 324 325 325 323 323 322 320 320 320 323 325 326 325 323 322 321 318
330 331 328 325 324 323 322 321 321 323 326 328 329 329 330 330 328 328 328 327 327 327 326 327 327 327 324 324 324 322 319 318 317 318 318 319 324 326 326 324 323 322 321
328 329 329 328 326 325 324 322 323 325 328 329 330 330 329 328 328 327 328 327 326 326 326 326 325 326 324 323 324 322 319 317 317 317 317 319 321 324 324 324 323 322 322
332 332 332 330 330 327 326 326 327 329 331 332 332 331 328 327 328 327 326 327 326 326 326 326 326 325 326 323 323 322 319 317 316 316 316 315 317 320 322 323 323 322 322
334 334 333 332 331 329 327 330 331 332 331 329 329 328 326 324 326 322 323 320 319 321 322 321 323 325 326 325 322 321 319 318 316 316 314 313 313 315 318 320 322 323 323
334 334 334 333 331 330 329 332 331 329 330 327 329 325 326 324 320 318 318 316 318 320 320 319 320 324 326 324 321 320 318 319 317 316 316 314 313 312 314 317 319 320 322
333 334 334 332 331 332 332 332 330 329 329 329 328 329 327 323 319 319 319 320 321 319 319 322 323 325 326 324 323 319 319 319 318 317 316 312 312 314 315 316 317 318 318
332 333 332 332 332 333 331 330 330 332 331 330 329 328 325 324 321 317 319 320 318 317 315 321 323 324 324 323 321 320 320 319 318 317 314 311 311 314 315 315 316 316 318
329 331 330 331 332 330 328 327 326 326 327 326 324 315 314 316 321 318 316 319 318 317 318 320 321 322 321 319 319 318 320 318 317 315 313 314 315 315 314 313 313 314 315
331 331 330 331 330 327 326 326 324 321 323 313 312 311 311 311 311 313 316 313 315 316 315 316 317 319 318 318 318 319 319 318 316 314 312 311 313 313 312 315 314 314 313
329 328 330 328 328 327 324 322 321 322 314 312 312 311 311 311 311 312 313 312 312 312 313 315 316 316 315 316 317 318 316 317 315 313 312 311 310 308 310 313 314 313 312
329 330 327 328 327 323 322 322 319 312 314 317 315 312 310 310 310 310 311 312 312 313 311 311 313 315 315 315 316 316 316 315 313 311 311 309 308 306 306 309 310 310 310
329 329 328 325 324 324 323 318 314 318 317 316 314 312 311 310 309 309 311 312 310 310 310 311 312 315 315 314 314 314 314 313 312 311 309 308 306 305 306 307 307 307 308
328 328 326 325 324 321 314 316 318 317 316 316 313 312 310 310 309 308 309 309 309 309 310 310 313 313 313 312 312 313 313 312 311 310 308 307 304 305 306 306 306 307 308
327 326 324 325 321 314 314 317 317 316 316 315 312 310 309 309 309 308 308 308 308 308 307 309 310 310 311 311 311 310 310 310 309 307 307 306 303 305 306 305 305 306 307
326 325 325 322 315 313 316 318 316 315 317 313 311 310 309 308 308 307 307 307 306 306 307 308 309 309 309 309 309 309 309 308 307 306 305 303 302 302 302 302 302 304 306
325 325 320 315 312 315 316 315 313 312 312 310 309 309 308 307 307 307 307 306 304 305 306 306 307 308 307 308 308 307 308 307 305 304 303 302 301 300 299 299 299 302 304
318 317 314 312 314 313 312 311 311 311 311 309 308 307 307 306 306 306 306 305 303 304 304 304 304 304 304 305 307 307 306 305 304 302 302 300 298 294 292 292 294 299 303
315 313 312 311 311 311 311 311 310 310 309 308 307 307 306 305 305 304 303 303 302 303 303 303 303 303 303 304 304 304 304 302 301 301 299 296 292 291 290 290 290 292 299
311 310 310 310 310 310 310 310 310 309 309 308 307 306 305 302 301 301 301 301 301 301 301 302 302 303 303 303 303 303 301 300 300 298 293 290 289 289 290 290 290 290 291
310 309 309 309 309 309 310 309 309 309 308 307 306 303 301 300 301 300 300 300 301 301 301 301 302 301 302 301 301 299 296 296 292 290 289 289 289 289 289 289 289 289 289
309 309 309 309 309 309 309 309 309 307 306 305 302 300 300 300 299 299 298 295 297 301 302 302 302 301 300 299 296 294 292 291 290 289 289 288 288 288 288 288 289 288 288
309 309 309 309 308 308 308 307 306 305 305 300 300 300 300 299 299 296 290 290 290 290 290 291 291 291 291 291 291 290 290 290 289 288 288 288 288 288 288 288 289 289 289
308 309 309 308 308 307 307 305 304 303 301 299 299 299 299 298 298 291 290 290 290 289 289 289 289 289 290 289 289 289 289 289 288 288 288 288 288 288 288 289 289 289 290
307 308 308 307 307 306 305 305 305 303 301 300 299 298 297 297 292 289 290 290 289 289 289 290 289 289 288 288 288 288 288 288 288 287 287 287 288 289 289 289 289 289 289
Wind_Speed
14 13 12 10 11 10 9 9 9 8 7 6 4 4 4 4 4 4 3 4 5 7 8 10 10 13 15 12 12 12 11 12 12 11 9 9 8 8 8 8 6 5 4
14 12 10 10 9 9 9 9 9 8 7 6 4 4 5 5 4 4 5 6 8 9 10 12 12 12 13 12 13 13 11 13 12 12 12 11 10 9 8 8 7 7 6
13 12 11 9 10 10 9 9 8 8 7 6 5 5 5 5 6 8 7 10 10 11 14 14 15 13 14 12 14 13 13 14 15 14 13 13 11 11 10 10 9 8 6
13 13 12 11 11 11 10 9 8 8 7 7 6 5 5 8 9 10 12 13 15 16 15 18 16 13 12 12 14 12 13 14 14 15 13 12 11 13 13 12 11 9 7
14 14 13 12 12 12 11 10 9 8 7 7 7 8 10 11 12 15 17 20 21 21 20 17 16 12 12 10 13 11 11 15 15 17 15 12 13 13 12 13 15 13 11
16 13 12 14 14 14 12 10 8 7 7 9 12 13 13 14 17 20 22 20 19 19 17 16 16 15 13 14 13 14 16 15 13 15 15 14 13 13 13 13 12 17 17
21 18 15 16 17 14 11 9 8 8 9 10 15 15 17 20 14 16 10 14 10 10 13 13 11 13 13 14 13 11 16 14 14 16 18 18 15 11 12 13 12 15 13
24 26 18 17 17 15 14 9 8 9 12 13 16 18 12 13 6 5 17 11 10 14 14 9 9 11 13 14 13 14 14 14 15 19 19 18 12 11 6 7 10 10 13
26 27 23 22 22 21 14 13 12 14 14 14 16 15 7 5 12 15 8 12 14 10 10 10 9 11 13 15 15 13 16 15 16 19 18 15 9 7 7 10 12 13 11
27 24 21 23 24 16 12 9 9 15 18 18 17 15 15 17 7 8 9 8 10 14 10 11 13 14 15 17 17 16 16 16 15 14 15 10 6 6 9 11 14 9 12
30 37 23 21 21 17 18 18 11 12 19 17 16 16 15 14 15 16 14 17 13 13 16 12 15 17 19 19 19 18 16 17 13 14 14 13 11 13 12 5 4 7 10
18 16 14 17 16 17 16 11 7 17 15 16 16 16 16 15 15 15 17 20 21 20 14 14 14 16 18 20 21 16 17 16 14 13 15 16 17 17 14 10 7 8 9
21 17 14 13 13 14 14 15 15 12 9 14 16 17 17 17 16 17 17 15 15 19 18 18 16 17 18 18 20 21 19 15 16 13 17 19 19 17 16 18 20 17 8
17 18 18 17 19 20 15 13 8 9 11 13 15 16 17 17 16 16 16 16 16 14 17 20 16 16 20 19 19 19 16 16 15 16 17 17 17 16 12 13 14 11 9
16 16 17 18 19 16 14 14 10 13 16 17 16 17 17 16 15 16 17 17 15 9 11 14 14 16 18 18 17 20 18 14 17 18 19 15 14 12 10 9 10 8 9
17 17 19 19 18 18 17 13 16 16 18 19 18 19 17 16 16 16 17 18 17 17 15 15 16 17 18 17 18 17 16 16 17 20 14 15 13 12 11 8 8 7 8
20 22 22 21 21 20 16 15 16 12 21 20 20 19 17 16 16 17 17 18 18 18 19 21 19 18 18 19 19 19 17 14 16 20 14 13 11 11 11 9 8 8 6
18 20 22 22 20 17 16 14 12 15 18 17 17 16 16 16 17 17 17 18 17 16 19 20 19 17 17 17 18 16 14 16 17 16 14 12 12 11 11 10 9 8 6
18 21 21 19 18 16 15 10 15 17 16 16 16 15 15 16 17 17 16 17 16 17 19 21 21 21 21 20 18 17 17 18 18 14 13 12 13 11 10 9 9 7 7
16 18 18 18 17 14 11 14 14 14 15 16 16 16 16 17 17 17 17 14 13 14 16 16 17 17 16 18 18 17 16 16 14 13 12 13 13 12 10 9 8 8 8
18 18 17 16 14 13 12 13 14 15 17 17 18 17 14 13 12 10 10 11 12 12 13 13 14 14 13 14 14 13 14 12 12 12 13 12 11 11 10 8 8 7 8
17 17 15 14 14 12 12 13 15 16 17 18 17 13 10 10 10 9 9 9 9 11 12 12 13 13 14 14 14 13 10 9 9 11 11 11 10 9 8 7 6 5 7
18 18 16 15 13 12 13 14 15 17 17 15 12 10 10 10 9 9 8 8 9 9 8 9 11 13 13 11 12 11 9 8 9 10 9 9 8 7 7 6 3 2 3
18 17 16 14 13 12 13 14 15 15 16 11 9 10 10 11 10 9 8 8 7 7 9 10 12 12 11 11 9 8 7 8 8 7 7 7 7 6 6 6 4 4 4
20 17 16 15 13 13 13 13 13 13 12 9 10 11 11 12 10 10 8 8 7 7 7 7 6 8 8 8 6 5 5 5 5 6 6 5 5 5 6 7 7 6 5
19 17 17 16 15 14 13 13 13 12 11 11 12 13 13 11 11 9 9 8 8 8 6 5 5 6 6 5 4 6 6 5 4 3 4 5 5 4 3 6 8 7 6
Wind_Direction
192 191 195 204 212 214 213 211 206 205 208 214 221 232 252 263 275 285 292 318 321 317 322 320 326 327 324 325 326 329 334 341 333 323 311 298 300 313 326 329 333 325 310
197 202 215 218 214 212 214 208 211 210 212 217 233 245 261 270 276 288 299 292 311 309 300 300 297 307 305 322 311 320 325 335 329 317 315 300 286 290 300 311 316 322 317
215 220 225 224 221 220 216 217 222 223 225 234 248 266 272 271 290 292 298 292 290 289 295 294 293 295 291 306 303 311 329 330 324 317 314 302 287 276 284 286 298 309 305
221 223 231 229 224 226 224 223 228 231 239 249 257 267 278 292 300 293 286 280 284 282 283 287 289 280 271 286 290 303 329 338 341 330 315 302 280 273 272 280 283 289 289
224 229 234 231 230 228 227 223 223 231 252 270 277 275 284 281 280 279 281 285 283 282 284 281 278 267 263 266 267 289 316 324 334 338 322 308 287 274 274 261 263 269 269
217 230 239 228 228 227 221 223 229 248 265 275 281 283 289 290 283 284 282 288 286 282 283 280 265 258 245 248 261 288 311 309 320 336 342 328 298 275 271 265 268 260 260
222 228 236 228 225 226 216 214 217 235 262 267 282 288 287 297 291 292 295 308 297 293 289 290 269 245 247 247 250 280 293 300 311 322 329 326 318 290 269 261 263 262 263
237 223 220 216 215 212 209 212 231 252 263 274 284 298 306 307 294 252 302 292 283 297 294 286 257 238 244 236 252 280 278 292 302 313 314 319 311 304 302 286 261 258 258
254 254 230 221 220 216 216 226 236 242 275 281 280 282 298 284 289 300 286 270 287 298 292 274 253 248 241 244 255 265 277 288 303 309 316 329 320 305 276 273 267 257 249
256 246 240 234 226 205 214 245 274 285 287 283 284 285 277 274 288 297 294 279 274 288 277 275 266 255 254 261 261 268 271 287 299 306 314 334 312 280 281 285 275 281 257
265 248 242 238 233 230 245 268 278 297 294 291 297 298 292 285 277 271 285 297 290 285 284 271 273 266 267 266 267 268 279 280 288 301 309 300 265 267 273 331 254 262 264
259 265 247 229 225 223 218 223 257 278 276 293 307 302 297 291 283 274 268 282 289 290 287 277 265 262 262 265 272 258 273 276 289 295 301 299 291 288 261 241 238 241 252
233 233 212 228 223 211 218 223 231 237 262 295 296 293 292 289 283 276 275 274 277 287 288 286 272 261 267 269 272 277 262 276 280 287 301 292 297 295 274 245 243 249 273
241 227 225 234 220 217 222 226 217 281 288 297 292 289 288 286 284 279 275 276 283 276 283 277 271 269 264 268 257 271 277 272 277 291 309 295 299 296 275 251 255 269 287
237 229 212 210 216 216 207 205 276 294 301 303 290 293 284 279 277 277 274 274 274 280 288 282 268 266 264 269 277 267 278 272 285 293 307 294 297 291 279 275 271 261 278
218 217 214 215 213 209 210 252 275 279 292 297 299 292 286 283 279 276 270 270 268 264 268 274 271 271 268 267 271 270 268 271 276 303 295 289 293 290 282 287 271 265 284
219 214 213 210 208 211 235 263 267 282 288 286 284 285 284 281 277 270 270 270 268 264 264 267 269 265 269 269 268 258 253 269 294 302 286 285 285 288 291 285 277 265 264
217 212 207 207 209 233 252 258 284 281 283 282 285 285 282 279 274 273 273 275 268 258 258 263 266 265 264 265 256 249 269 284 290 280 273 282 283 282 284 276 269 257 246
210 208 208 216 234 244 253 271 273 279 282 285 284 282 278 272 274 277 277 275 265 253 256 261 268 268 268 262 253 259 270 278 284 268 274 280 282 288 281 276 267 250 231
216 217 223 230 235 243 256 265 272 281 285 287 285 280 274 272 275 279 276 269 261 255 255 259 263 263 259 254 250 252 261 273 266 263 270 275 280 286 287 280 268 253 231
218 221 225 230 236 241 253 269 280 286 288 287 283 279 278 281 286 280 264 257 257 254 253 249 251 252 253 253 254 257 267 262 258 268 272 273 276 279 282 283 273 250 232
225 227 229 234 240 249 259 270 279 287 292 289 279 276 274 275 271 254 249 251 256 256 252 246 242 248 254 255 260 262 255 250 264 268 268 269 270 274 277 277 278 272 234
224 225 227 235 245 256 268 280 290 296 300 292 278 264 256 260 248 251 254 254 246 246 246 242 246 245 249 253 256 258 251 252 261 263 271 274 267 264 263 267 272 245 236
225 225 227 234 242 253 268 281 292 300 306 282 252 246 250 250 241 245 251 253 252 250 247 243 240 243 247 245 243 244 249 253 256 264 265 265 260 250 250 259 260 238 223
227 228 233 237 245 256 269 281 291 295 303 268 249 248 246 242 239 244 246 248 248 245 246 238 233 234 237 235 229 235 241 246 252 258 250 250 257 249 248 254 256 255 245
229 231 236 239 246 255 266 273 282 289 289 273 254 247 241 239 245 248 243 243 236 233 227 221 212 219 216 211 209 215 215 218 223 253 252 247 259 247 261 257 248 253 243